FW5810 Weather Reports


time (UTC)temp
C
wind
direction
speed
KPH
gust
KPH
rain 1hr
cm
rain 24hr
cm
rain mn
cm
humidity
%
barometer
mb
20260508214604 10 272 1.6 1.6 0.00 0.08 0.08 89 1011.3
20260508214100 10 273 1.6 1.6 0.00 0.08 0.08 90 1011.4
20260508180046 12 250 6.4 8.0 0.18 0.08 0.08 74 1013.3
20260508175543 12 250 6.4 8.0 0.18 0.08 0.08 74 1013.3
20260508175040 12 250 6.4 8.0 0.18 0.08 0.08 74 1013.3
20260508174538 12 252 9.7 16.1 0.18 0.08 0.08 73 1013.4
20260508174035 11 250 12.9 17.7 0.00 0.05 0.05 74 1013.2
20260508173532 12 254 6.4 12.9 0.13 0.05 0.05 74 1013.0
20260508173027 12 229 12.9 12.9 0.13 0.05 0.05 72 1013.2
20260508172525 12 276 4.8 11.3 0.00 0.03 0.03 71 1013.1
20260508172021 12 111 12.9 22.5 0.18 0.03 0.03 69 1013.2
20260508171518 13 264 8.0 22.5 0.18 0.03 0.03 63 1013.0
20260508171014 13 257 8.0 11.3 0.00 0.00 0.00 63 1012.9
20260508170512 14 263 11.3 16.1 0.00 0.00 0.00 59 1012.9
20260508170009 14 264 11.3 16.1 0.00 0.00 0.00 58 1013.0
20260508165506 15 276 3.2 4.8 0.00 0.00 0.00 57 1012.8
20260508165003 15 253 8.0 19.3 0.00 0.00 0.00 55 1012.8
20260508164459 15 263 8.0 19.3 0.00 0.00 0.00 54 1012.9
20260508163956 14 263 4.8 17.7 0.00 0.00 0.00 58 1013.1
20260508163454 15 249 4.8 17.7 0.00 0.00 0.00 55 1013.0
20260508162949 15 243 8.0 22.5 0.00 0.00 0.00 57 1012.9
20260508162447 14 220 4.8 12.9 0.00 0.00 0.00 57 1012.9
20260508161944 14 220 6.4 8.0 0.00 0.00 0.00 57 1013.1
20260508161441 14 289 6.4 19.3 0.00 0.00 0.00 58 1013.1
20260508160938 14 243 8.0 19.3 0.00 0.00 0.00 56 1013.2
20260508160438 14 239 20.9 30.6 0.00 0.00 0.00 55 1013.2
20260508155933 14 289 16.1 22.5 0.00 0.00 0.00 57 1013.2
20260508155430 14 318 4.8 12.9 0.00 0.00 0.00 58 1013.4
20260508154927 14 326 6.4 8.0 0.00 0.00 0.00 56 1013.3
20260508154424 13 250 16.1 19.3 0.00 0.00 0.00 57 1013.3
20260508153921 13 249 8.0 12.9 0.00 0.00 0.00 56 1013.3
20260508153418 13 261 4.8 8.0 0.00 0.00 0.00 56 1013.5
20260508152914 13 157 14.5 19.3 0.00 0.00 0.00 57 1013.4
20260508152411 13 308 6.4 6.4 0.00 0.00 0.00 57 1013.4
20260508151907 13 241 8.0 16.1 0.00 0.00 0.00 56 1013.3
20260508151404 13 287 1.6 8.0 0.00 0.00 0.00 59 1013.8
20260508150900 13 252 6.4 16.1 0.00 0.00 0.00 58 1013.4
20260508150357 13 295 16.1 17.7 0.00 0.00 0.00 55 1013.5
20260508145853 13 264 9.7 11.3 0.00 0.00 0.00 56 1013.5
20260508145350 13 282 8.0 17.7 0.00 0.00 0.00 57 1013.3
20260508144846 13 296 4.8 8.0 0.00 0.00 0.00 57 1013.7
20260508144345 14 268 11.3 12.9 0.00 0.00 0.00 55 1013.4
20260508143842 13 275 1.6 6.4 0.00 0.00 0.00 58 1013.4
20260508143339 13 350 3.2 4.8 0.00 0.00 0.00 57 1013.7
20260508142835 12 245 9.7 16.1 0.00 0.00 0.00 58 1013.8
20260508142332 13 248 6.4 16.1 0.00 0.00 0.00 56 1013.5
20260508141829 12 265 4.8 8.0 0.00 0.00 0.00 57 1013.5
20260508141326 12 256 11.3 11.3 0.00 0.00 0.00 57 1013.5
20260508140823 12 244 8.0 22.5 0.00 0.00 0.00 57 1013.4
20260508140320 13 315 4.8 8.0 0.00 0.00 0.00 56 1013.7
20260508135816 12 283 9.7 19.3 0.00 0.00 0.00 57 1013.8
20260508135312 12 10 8.0 12.9 0.00 0.00 0.00 55 1013.7
20260508134808 12 208 3.2 12.9 0.00 0.00 0.00 58 1013.7
20260508134305 11 298 6.4 11.3 0.00 0.00 0.00 57 1013.9
20260508133802 11 274 6.4 12.9 0.00 0.00 0.00 59 1013.9
20260508133300 11 300 8.0 12.9 0.00 0.00 0.00 58 1014.0
20260508132757 11 200 4.8 16.1 0.00 0.00 0.00 61 1013.9
20260508132254 11 297 3.2 16.1 0.00 0.00 0.00 59 1013.9
20260508131750 11 205 14.5 17.7 0.00 0.00 0.00 59 1014.1
20260508131246 11 279 12.9 24.1 0.00 0.00 0.00 57 1013.9
20260508130743 11 222 4.8 12.9 0.00 0.00 0.00 59 1013.8
20260508130241 11 290 16.1 19.3 0.00 0.00 0.00 58 1013.8
20260508125736 11 204 4.8 12.9 0.00 0.00 0.00 61 1013.8
20260508125232 10 276 3.2 6.4 0.00 0.00 0.00 63 1014.0
20260508124731 10 258 3.2 11.3 0.00 0.00 0.00 64 1013.9
20260508124227 10 202 1.6 6.4 0.00 0.00 0.00 65 1014.0
20260508123726 11 276 4.8 8.0 0.00 0.00 0.00 64 1014.0
20260508123224 11 208 9.7 12.9 0.00 0.00 0.00 62 1013.8
20260508122719 11 249 8.0 19.3 0.00 0.00 0.00 63 1013.8
20260508122216 10 279 8.0 12.9 0.00 0.00 0.00 64 1013.4
20260508121714 10 293 12.9 16.1 0.00 0.00 0.00 65 1013.4
20260508121213 10 219 6.4 8.0 0.00 0.00 0.00 68 1013.4
20260508120709 10 221 6.4 8.0 0.00 0.00 0.00 68 1013.5
20260508120208 10 259 3.2 6.4 0.00 0.00 0.00 70 1013.5
20260508115705 10 233 1.6 11.3 0.00 0.00 0.00 69 1013.4
20260508115202 9 122 1.6 4.8 0.00 0.00 0.00 71 1013.3
20260508114658 9 260 1.6 6.4 0.00 0.00 0.00 72 1013.4
20260508114155 8 233 4.8 8.0 0.00 0.00 0.00 73 1013.2
20260508113652 8 231 1.6 4.8 0.00 0.00 0.00 77 1013.4
20260508113150 8 244 1.6 4.8 0.00 0.00 0.00 75 1013.2
20260508112646 8 254 1.6 1.6 0.00 0.00 0.00 76 1013.2
20260508112143 8 269 0.0 1.6 0.00 0.00 0.00 76 1013.2
20260508111639 8 268 8.0 11.3 0.00 0.00 0.00 75 1013.4
20260508111137 8 107 1.6 1.6 0.00 0.00 0.00 77 1013.3
20260508110635 8 162 1.6 4.8 0.00 0.00 0.00 76 1013.3
20260508110131 8 265 8.0 19.3 0.00 0.00 0.00 73 1013.8
20260508105626 8 233 8.0 17.7 0.00 0.00 0.00 73 1013.8
20260508105123 8 273 6.4 8.0 0.00 0.00 0.00 70 1013.7
20260508104621 8 308 1.6 4.8 0.00 0.00 0.00 70 1013.3
20260508104117 8 269 4.8 6.4 0.00 0.00 0.00 70 1013.2
20260508103614 8 231 3.2 4.8 0.00 0.00 0.00 71 1013.2
20260508103111 8 274 6.4 11.3 0.00 0.00 0.00 70 1013.2
20260508102609 8 234 3.2 12.9 0.00 0.00 0.00 70 1013.0
20260508102106 7 285 6.4 11.3 0.00 0.00 0.00 71 1013.2
20260508101604 7 174 4.8 6.4 0.00 0.00 0.00 73 1013.0
20260508101101 7 227 1.6 4.8 0.00 0.00 0.00 73 1013.3
20260508100559 7 221 0.0 1.6 0.00 0.00 0.00 73 1013.1
20260508100055 7 262 0.0 1.6 0.00 0.00 0.00 72 1013.1
20260508095552 7 265 1.6 4.8 0.00 0.00 0.00 72 1013.0
20260508095049 7 239 1.6 4.8 0.00 0.00 0.00 72 1013.1
20260508094547 7 222 4.8 6.4 0.00 0.00 0.00 72 1013.4
20260508094043 7 279 0.0 11.3 0.00 0.00 0.00 72 1013.3
20260508093540 7 246 4.8 11.3 0.00 0.00 0.00 72 1013.4
20260508093038 7 242 1.6 4.8 0.00 0.00 0.00 73 1013.1
20260508092535 7 255 1.6 6.4 0.00 0.00 0.00 73 1013.2
20260508092034 7 219 0.0 1.6 0.00 0.00 0.00 74 1013.3
20260508091531 7 255 4.8 6.4 0.00 0.00 0.00 73 1013.3
20260508091028 7 254 8.0 8.0 0.00 0.00 0.00 73 1013.2
20260508090526 7 219 1.6 1.6 0.00 0.00 0.00 73 1013.5
20260508090022 7 244 3.2 8.0 0.00 0.00 0.00 72 1013.2
20260508085519 7 251 1.6 1.6 0.00 0.00 0.00 72 1013.4
20260508085016 7 261 4.8 8.0 0.00 0.00 0.00 72 1013.4
20260508084513 7 231 3.2 8.0 0.00 0.00 0.00 72 1013.4
20260508084010 7 211 3.2 4.8 0.00 0.00 0.00 71 1013.4
20260508083507 8 209 3.2 4.8 0.00 0.00 0.00 71 1013.4
20260508083003 8 223 8.0 8.0 0.00 0.00 0.00 71 1013.5
20260508082459 8 223 4.8 6.4 0.00 0.00 0.00 71 1013.5
20260508081957 8 267 3.2 4.8 0.00 0.00 0.00 71 1013.5
20260508081454 8 237 0.0 4.8 0.00 0.00 0.00 70 1013.5
20260508080950 8 221 1.6 4.8 0.00 0.00 0.00 70 1013.7
20260508080448 8 264 3.2 4.8 0.00 0.00 0.00 70 1013.7
20260508075945 8 280 3.2 11.3 0.00 0.00 0.00 70 1013.5
20260508075442 8 232 3.2 6.4 0.00 0.00 0.00 71 1013.5
20260508074939 8 227 6.4 8.0 0.00 0.00 0.00 71 1013.5
20260508074437 8 220 3.2 12.9 0.00 0.00 0.00 70 1013.5
20260508073934 8 212 8.0 16.1 0.00 0.00 0.00 68 1013.7
20260508073431 9 280 8.0 19.3 0.00 0.00 0.00 66 1013.7
20260508072928 9 154 12.9 33.8 0.00 0.00 0.00 62 1013.7
20260508072424 9 255 6.4 16.1 0.00 0.00 0.00 61 1013.9
20260508071921 8 239 11.3 16.1 0.00 0.00 0.00 61 1013.9
20260508071419 8 231 3.2 6.4 0.00 0.00 0.00 62 1013.8
20260508070917 8 237 3.2 11.3 0.00 0.00 0.00 64 1013.9
20260508070415 8 261 4.8 6.4 0.00 0.00 0.00 64 1013.8
20260508065912 8 271 3.2 8.0 0.00 0.00 0.00 65 1013.7
20260508065410 8 227 3.2 4.8 0.00 0.00 0.00 64 1013.7
20260508064908 8 230 1.6 1.6 0.00 0.00 0.00 64 1013.8
20260508064405 7 185 1.6 1.6 0.00 0.00 0.00 64 1013.5
20260508063903 7 186 0.0 1.6 0.00 0.00 0.00 64 1013.8
20260508063400 7 182 4.8 4.8 0.00 0.00 0.00 64 1013.5
20260508062857 7 232 1.6 1.6 0.00 0.00 0.00 65 1013.7
20260508062355 7 235 0.0 4.8 0.00 0.00 0.00 66 1014.0
20260508061852 7 235 1.6 4.8 0.00 0.00 0.00 66 1013.8
20260508061349 7 223 0.0 1.6 0.00 0.00 0.00 64 1013.8
20260508060845 7 222 1.6 1.6 0.00 0.00 0.00 64 1013.8
20260508060343 8 222 1.6 4.8 0.00 0.00 0.00 64 1013.8
20260508055838 8 225 1.6 1.6 0.00 0.00 0.00 62 1013.8
20260508055336 8 226 1.6 1.6 0.00 0.00 0.00 62 1013.8
20260508054832 8 235 1.6 1.6 0.00 0.00 0.00 63 1013.9
20260508054330 8 234 1.6 4.8 0.00 0.00 0.00 62 1014.0
20260508053826 8 220 1.6 1.6 0.00 0.00 0.00 62 1014.1
20260508053324 8 221 1.6 4.8 0.00 0.00 0.00 60 1014.2
20260508052821 8 214 0.0 1.6 0.00 0.00 0.00 62 1014.1
20260508052318 8 213 0.0 0.0 0.00 0.00 0.00 61 1014.2
20260508051815 8 213 0.0 0.0 0.00 0.00 0.00 62 1014.3
20260508051310 8 213 1.6 4.8 0.00 0.00 0.00 61 1014.4
20260508050807 8 218 1.6 1.6 0.00 0.00 0.00 61 1014.4
20260508050304 8 201 0.0 0.0 0.00 0.00 0.00 61 1014.3
20260508045759 8 274 0.0 1.6 0.00 0.00 0.00 62 1014.4
20260508045257 8 281 0.0 1.6 0.00 0.00 0.00 63 1014.3
20260508044755 8 219 4.8 6.4 0.00 0.00 0.00 62 1014.4
20260508044251 8 253 1.6 6.4 0.00 0.00 0.00 63 1014.4
20260508043747 8 261 0.0 1.6 0.00 0.00 0.00 63 1014.3
20260508043245 8 270 1.6 4.8 0.00 0.00 0.00 62 1014.2
20260508042741 8 219 4.8 8.0 0.00 0.00 0.00 62 1014.4
20260508042239 7 316 0.0 6.4 0.00 0.00 0.00 64 1014.4
20260508041735 7 291 1.6 4.8 0.00 0.00 0.00 64 1014.4
20260508041232 7 285 6.4 16.1 0.00 0.00 0.00 66 1014.2
20260508040728 6 224 4.8 8.0 0.00 0.00 0.00 72 1014.4
20260508040226 5 307 1.6 1.6 0.00 0.00 0.00 78 1014.2
20260508035723 5 308 1.6 1.6 0.00 0.00 0.00 80 1014.3
20260508035221 5 308 0.0 0.0 0.00 0.00 0.00 79 1014.4
20260508034717 5 308 0.0 0.0 0.00 0.00 0.00 77 1014.3
20260508034215 5 308 0.0 0.0 0.00 0.00 0.00 77 1014.3
20260508033711 4 307 3.2 1.6 0.00 0.00 0.00 79 1014.4
20260508033210 4 309 1.6 1.6 0.00 0.00 0.00 83 1014.2
20260508032707 4 309 0.0 0.0 0.00 0.00 0.00 82 1014.3
20260508032204 4 310 0.0 0.0 0.00 0.00 0.00 83 1014.2
20260508031701 4 310 0.0 0.0 0.00 0.00 0.00 83 1014.2
20260508031156 4 310 0.0 0.0 0.00 0.00 0.00 82 1014.2
20260508030653 4 310 0.0 0.0 0.00 0.00 0.00 80 1014.2
20260508030151 4 309 0.0 0.0 0.00 0.00 0.00 79 1014.1
20260508025647 4 309 0.0 0.0 0.00 0.00 0.00 76 1014.3
20260508025144 4 310 0.0 0.0 0.00 0.00 0.00 75 1014.2
20260508024640 5 309 0.0 0.0 0.00 0.00 0.00 74 1014.2
20260508024137 5 309 0.0 0.0 0.00 0.00 0.00 73 1014.3
20260508023633 5 309 0.0 0.0 0.00 0.00 0.00 73 1014.3
20260508023132 5 309 0.0 0.0 0.00 0.00 0.00 73 1014.2
20260508022627 5 309 0.0 1.6 0.00 0.00 0.00 74 1014.3
20260508022124 5 310 0.0 0.0 0.00 0.00 0.00 72 1014.2
20260508021620 5 309 0.0 0.0 0.00 0.00 0.00 72 1014.1
20260508021116 5 309 0.0 0.0 0.00 0.00 0.00 71 1014.3
20260508020614 5 310 0.0 0.0 0.00 0.00 0.00 73 1014.2
20260508020111 6 310 0.0 0.0 0.00 0.00 0.00 70 1014.2
20260508015609 6 310 0.0 0.0 0.00 0.00 0.00 66 1014.2
20260508015105 6 310 0.0 0.0 0.00 0.00 0.00 65 1014.0
20260508014601 6 309 0.0 0.0 0.00 0.00 0.00 63 1014.0
20260508014058 6 309 0.0 0.0 0.00 0.00 0.00 63 1014.1
20260508013554 7 310 0.0 0.0 0.00 0.00 0.00 63 1014.1
20260508013051 7 310 0.0 0.0 0.00 0.00 0.00 58 1014.2
20260508012548 7 309 0.0 0.0 0.00 0.00 0.00 54 1014.1
20260508012046 7 310 0.0 0.0 0.00 0.00 0.00 54 1014.0
20260508011544 7 310 0.0 0.0 0.00 0.00 0.00 54 1014.0
20260508011041 7 310 0.0 0.0 0.00 0.00 0.00 53 1014.1
20260508010538 8 309 0.0 0.0 0.00 0.00 0.00 50 1014.0
20260508010035 8 310 0.0 0.0 0.00 0.00 0.00 49 1014.0
20260508005532 8 310 0.0 0.0 0.00 0.00 0.00 47 1013.9
20260508005028 9 309 0.0 0.0 0.00 0.00 0.00 44 1013.8
20260508004524 10 309 0.0 1.6 0.00 0.00 0.00 43 1013.7
20260508004021 10 309 0.0 1.6 0.00 0.00 0.00 43 1013.9
20260508003518 10 309 0.0 1.6 0.00 0.00 0.00 43 1013.7
20260508003015 10 319 4.8 4.8 0.00 0.00 0.00 40 1013.7
20260508002511 10 345 6.4 8.0 0.00 0.00 0.00 40 1013.5
20260508002009 10 357 4.8 8.0 0.00 0.00 0.00 39 1013.5
20260508001504 11 352 3.2 6.4 0.00 0.00 0.00 39 1013.5
20260508001001 11 355 3.2 4.8 0.00 0.00 0.00 39 1013.5
20260508000457 11 341 4.8 6.4 0.00 0.00 0.00 37 1013.4
20260507235954 11 285 8.0 8.0 0.00 0.00 0.00 38 1013.2
20260507235450 11 332 1.6 11.3 0.00 0.00 0.00 38 1013.3
20260507234948 11 331 9.7 17.7 0.00 0.00 0.00 37 1013.1
20260507234444 11 344 3.2 12.9 0.00 0.00 0.00 37 1013.1
20260507233941 11 313 8.0 8.0 0.00 0.00 0.00 37 1013.1
20260507233438 11 295 8.0 11.3 0.00 0.00 0.00 36 1012.9
20260507232937 12 306 9.7 19.3 0.00 0.00 0.00 36 1013.0
20260507232432 12 307 4.8 11.3 0.00 0.00 0.00 38 1013.1
20260507231930 12 357 3.2 6.4 0.00 0.00 0.00 39 1013.0
20260507231426 12 300 6.4 16.1 0.00 0.00 0.00 37 1013.2
20260507230923 12 279 4.8 6.4 0.00 0.00 0.00 36 1013.2
20260507230420 12 267 6.4 6.4 0.00 0.00 0.00 37 1013.1
20260507225920 12 307 3.2 8.0 0.00 0.00 0.00 37 1012.9
20260507225417 12 249 11.3 11.3 0.00 0.00 0.00 40 1013.1
20260507224913 12 14 6.4 8.0 0.00 0.00 0.00 40 1012.9
20260507224409 12 256 4.8 8.0 0.00 0.00 0.00 42 1013.1
20260507223906 12 343 16.1 17.7 0.00 0.00 0.00 41 1013.3
20260507223402 12 335 8.0 22.5 0.00 0.00 0.00 42 1013.3
20260507222859 12 326 8.0 19.3 0.00 0.00 0.00 43 1013.3
20260507222356 12 275 8.0 29.0 0.00 0.00 0.00 44 1013.1
20260507221853 12 342 14.5 22.5 0.00 0.00 0.00 42 1013.0
20260507221349 12 292 9.7 19.3 0.00 0.00 0.00 44 1013.3
20260507220845 12 313 3.2 11.3 0.00 0.00 0.00 47 1013.0
20260507220344 12 331 8.0 30.6 0.00 0.00 0.00 47 1013.1
20260507215839 12 331 6.4 12.9 0.00 0.00 0.00 47 1012.9
20260507215336 12 315 9.7 19.3 0.00 0.00 0.00 45 1012.8
20260507214833 13 329 8.0 17.7 0.00 0.00 0.00 43 1012.5